Year,Month,Day,Hour,Minute,Value (Times are PST for temperature in C)
2016,06,27,00,00,14.80
2016,06,27,00,01,14.80
2016,06,27,00,02,14.70
2016,06,27,00,03,14.70
2016,06,27,00,04,14.70
2016,06,27,00,05,14.70
2016,06,27,00,06,14.70
2016,06,27,00,07,14.70
2016,06,27,00,08,14.70
2016,06,27,00,09,14.70
2016,06,27,00,10,14.70
2016,06,27,00,11,14.70
2016,06,27,00,12,14.60
2016,06,27,00,13,14.60
2016,06,27,00,14,14.60
2016,06,27,00,15,14.60
2016,06,27,00,16,14.60
2016,06,27,00,17,14.60
2016,06,27,00,18,14.60
2016,06,27,00,19,14.60
2016,06,27,00,20,14.60
2016,06,27,00,21,14.60
2016,06,27,00,22,14.60
2016,06,27,00,23,14.60
2016,06,27,00,24,14.60
2016,06,27,00,25,14.50
2016,06,27,00,26,14.50
2016,06,27,00,27,14.50
2016,06,27,00,28,14.40
2016,06,27,00,29,14.40
2016,06,27,00,30,14.40
2016,06,27,00,31,14.40
2016,06,27,00,32,14.30
2016,06,27,00,33,14.30
2016,06,27,00,34,14.30
2016,06,27,00,35,14.30
2016,06,27,00,36,14.20
2016,06,27,00,37,14.20
2016,06,27,00,38,14.20
2016,06,27,00,39,14.20
2016,06,27,00,40,14.20
2016,06,27,00,41,14.20
2016,06,27,00,42,14.10
2016,06,27,00,43,14.10
2016,06,27,00,44,14.10
2016,06,27,00,45,14.10
2016,06,27,00,46,14.10
2016,06,27,00,47,14.10
2016,06,27,00,48,14.10
2016,06,27,00,49,14.10
2016,06,27,00,50,14.10
2016,06,27,00,51,14.10
2016,06,27,00,52,14.10
2016,06,27,00,53,14.10
2016,06,27,00,54,14.10
2016,06,27,00,55,14.10
2016,06,27,00,56,14.10
2016,06,27,00,57,14.10
2016,06,27,00,58,14.00
2016,06,27,00,59,14.00
2016,06,27,01,00,14.00
2016,06,27,01,01,14.00
2016,06,27,01,02,14.00
2016,06,27,01,03,13.90
2016,06,27,01,04,13.90
2016,06,27,01,05,13.90
2016,06,27,01,06,13.90
2016,06,27,01,07,13.90
2016,06,27,01,08,13.80
2016,06,27,01,09,13.80
2016,06,27,01,10,13.80
2016,06,27,01,11,13.80
2016,06,27,01,12,13.80
2016,06,27,01,13,13.70
2016,06,27,01,14,13.70
2016,06,27,01,15,13.70
2016,06,27,01,16,13.70
2016,06,27,01,17,13.70
2016,06,27,01,18,13.60
2016,06,27,01,19,13.60
2016,06,27,01,20,13.60
2016,06,27,01,21,13.60
2016,06,27,01,22,13.60
2016,06,27,01,23,13.50
2016,06,27,01,24,13.50
2016,06,27,01,25,13.50
2016,06,27,01,26,13.50
2016,06,27,01,27,13.50
2016,06,27,01,28,13.40
2016,06,27,01,29,13.40
2016,06,27,01,30,13.40
2016,06,27,01,31,13.40
2016,06,27,01,32,13.40
2016,06,27,01,33,13.40
2016,06,27,01,34,13.40
2016,06,27,01,35,13.40
2016,06,27,01,36,13.40
2016,06,27,01,37,13.40
2016,06,27,01,38,13.40
2016,06,27,01,39,13.40
2016,06,27,01,40,13.40
2016,06,27,01,41,13.40
2016,06,27,01,42,13.40
2016,06,27,01,43,13.40
2016,06,27,01,44,13.30
2016,06,27,01,45,13.30
2016,06,27,01,46,13.30
2016,06,27,01,47,13.30
2016,06,27,01,48,13.30
2016,06,27,01,49,13.30
2016,06,27,01,50,13.30
2016,06,27,01,51,13.30
2016,06,27,01,52,13.30
2016,06,27,01,53,13.30
2016,06,27,01,54,13.30
2016,06,27,01,55,13.30
2016,06,27,01,56,13.30
2016,06,27,01,57,13.30
2016,06,27,01,58,13.30
2016,06,27,01,59,13.30
2016,06,27,02,00,13.30
2016,06,27,02,01,13.30
2016,06,27,02,02,13.30
2016,06,27,02,03,13.30
2016,06,27,02,04,13.30
2016,06,27,02,05,13.20
2016,06,27,02,06,13.20
2016,06,27,02,07,13.20
2016,06,27,02,08,13.20
2016,06,27,02,09,13.20
2016,06,27,02,10,13.20
2016,06,27,02,11,13.20
2016,06,27,02,12,13.10
2016,06,27,02,13,13.10
2016,06,27,02,14,13.10
2016,06,27,02,15,13.10
2016,06,27,02,16,13.10
2016,06,27,02,17,13.10
2016,06,27,02,18,13.10
2016,06,27,02,19,13.00
2016,06,27,02,20,13.00
2016,06,27,02,21,13.00
2016,06,27,02,22,13.00
2016,06,27,02,23,13.00
2016,06,27,02,24,13.00
2016,06,27,02,25,13.00
2016,06,27,02,26,13.00
2016,06,27,02,27,13.00
2016,06,27,02,28,13.00
2016,06,27,02,29,13.00
2016,06,27,02,30,13.10
2016,06,27,02,31,13.10
2016,06,27,02,32,13.10
2016,06,27,02,33,13.10
2016,06,27,02,34,13.10
2016,06,27,02,35,13.10
2016,06,27,02,36,13.10
2016,06,27,02,37,13.10
2016,06,27,02,38,13.10
2016,06,27,02,39,13.10
2016,06,27,02,40,13.00
2016,06,27,02,41,13.00
2016,06,27,02,42,13.00
2016,06,27,02,43,13.00
2016,06,27,02,44,12.90
2016,06,27,02,45,12.90
2016,06,27,02,46,12.90
2016,06,27,02,47,12.90
2016,06,27,02,48,12.90
2016,06,27,02,49,12.90
2016,06,27,02,50,12.90
2016,06,27,02,51,12.80
2016,06,27,02,52,12.80
2016,06,27,02,53,12.80
2016,06,27,02,54,12.80
2016,06,27,02,55,12.80
2016,06,27,02,56,12.80
2016,06,27,02,57,12.80
2016,06,27,02,58,12.80
2016,06,27,02,59,12.80
2016,06,27,03,00,12.70
2016,06,27,03,01,12.70
2016,06,27,03,02,12.70
2016,06,27,03,03,12.70
2016,06,27,03,04,12.70
2016,06,27,03,05,12.60
2016,06,27,03,06,12.60
2016,06,27,03,07,12.60
2016,06,27,03,08,12.60
2016,06,27,03,09,12.60
2016,06,27,03,10,12.50
2016,06,27,03,11,12.50
2016,06,27,03,12,12.50
2016,06,27,03,13,12.50
2016,06,27,03,14,12.50
2016,06,27,03,15,12.50
2016,06,27,03,16,12.50
2016,06,27,03,17,12.40
2016,06,27,03,18,12.40
2016,06,27,03,19,12.40
2016,06,27,03,20,12.40
2016,06,27,03,21,12.40
2016,06,27,03,22,12.40
2016,06,27,03,23,12.40
2016,06,27,03,24,12.40
2016,06,27,03,25,12.40
2016,06,27,03,26,12.40
2016,06,27,03,27,12.40
2016,06,27,03,28,12.40
2016,06,27,03,29,12.40
2016,06,27,03,30,12.30
2016,06,27,03,31,12.30
2016,06,27,03,32,12.30
2016,06,27,03,33,12.30
2016,06,27,03,34,12.30
2016,06,27,03,35,12.30
2016,06,27,03,36,12.30
2016,06,27,03,37,12.30
2016,06,27,03,38,12.30
2016,06,27,03,39,12.30
2016,06,27,03,40,12.30
2016,06,27,03,41,12.30
2016,06,27,03,42,12.30
2016,06,27,03,43,12.20
2016,06,27,03,44,12.20
2016,06,27,03,45,12.20
2016,06,27,03,46,12.20
2016,06,27,03,47,12.20
2016,06,27,03,48,12.20
2016,06,27,03,49,12.20
2016,06,27,03,50,12.10
2016,06,27,03,51,12.10
2016,06,27,03,52,12.10
2016,06,27,03,53,12.10
2016,06,27,03,54,12.10
2016,06,27,03,55,12.10
2016,06,27,03,56,12.10
2016,06,27,03,57,12.10
2016,06,27,03,58,12.10
2016,06,27,03,59,12.10
2016,06,27,04,00,12.10
2016,06,27,04,01,12.10
2016,06,27,04,02,12.10
2016,06,27,04,03,12.00
2016,06,27,04,04,12.00
2016,06,27,04,05,12.00
2016,06,27,04,06,12.00
2016,06,27,04,07,11.90
2016,06,27,04,08,11.90
2016,06,27,04,09,11.90
2016,06,27,04,10,11.90
2016,06,27,04,11,11.90
2016,06,27,04,12,11.90
2016,06,27,04,13,11.90
2016,06,27,04,14,11.90
2016,06,27,04,15,11.90
2016,06,27,04,16,11.90
2016,06,27,04,17,11.90
2016,06,27,04,18,11.90
2016,06,27,04,19,11.90
2016,06,27,04,20,11.90
2016,06,27,04,21,11.90
2016,06,27,04,22,11.90
2016,06,27,04,23,11.90
2016,06,27,04,24,11.90
2016,06,27,04,25,11.90
2016,06,27,04,26,11.90
2016,06,27,04,27,11.90
2016,06,27,04,28,11.90
2016,06,27,04,29,11.90
2016,06,27,04,30,11.80
2016,06,27,04,31,11.80
2016,06,27,04,32,11.80
2016,06,27,04,33,11.80
2016,06,27,04,34,11.80
2016,06,27,04,35,11.80
2016,06,27,04,36,11.80
2016,06,27,04,37,11.80
2016,06,27,04,38,11.80
2016,06,27,04,39,11.80
2016,06,27,04,40,11.80
2016,06,27,04,41,11.80
2016,06,27,04,42,11.80
2016,06,27,04,43,11.80
2016,06,27,04,44,11.80
2016,06,27,04,45,11.80
2016,06,27,04,46,11.70
2016,06,27,04,47,11.70
2016,06,27,04,48,11.70
2016,06,27,04,49,11.70
2016,06,27,04,50,11.70
2016,06,27,04,51,11.70
2016,06,27,04,52,11.70
2016,06,27,04,53,11.70
2016,06,27,04,54,11.70
2016,06,27,04,55,11.70
2016,06,27,04,56,11.70
2016,06,27,04,57,11.70
2016,06,27,04,58,11.60
2016,06,27,04,59,11.60
2016,06,27,05,00,11.60
2016,06,27,05,01,11.60
2016,06,27,05,02,11.60
2016,06,27,05,03,11.60
2016,06,27,05,04,11.60
2016,06,27,05,05,11.60
2016,06,27,05,06,11.60
2016,06,27,05,07,11.50
2016,06,27,05,08,11.50
2016,06,27,05,09,11.50
2016,06,27,05,10,11.50
2016,06,27,05,11,11.40
2016,06,27,05,12,11.40
2016,06,27,05,13,11.40
2016,06,27,05,14,11.40
2016,06,27,05,15,11.40
2016,06,27,05,16,11.40
2016,06,27,05,17,11.40
2016,06,27,05,18,11.40
2016,06,27,05,19,11.40
2016,06,27,05,20,11.40
2016,06,27,05,21,11.40
2016,06,27,05,22,11.40
2016,06,27,05,23,11.40
2016,06,27,05,24,11.40
2016,06,27,05,25,11.40
2016,06,27,05,26,11.40
2016,06,27,05,27,11.40
2016,06,27,05,28,11.40
2016,06,27,05,29,11.30
2016,06,27,05,30,11.40
2016,06,27,05,31,11.40
2016,06,27,05,32,11.40
2016,06,27,05,33,11.40
2016,06,27,05,34,11.40
2016,06,27,05,35,11.40
2016,06,27,05,36,11.40
2016,06,27,05,37,11.40
2016,06,27,05,38,11.40
2016,06,27,05,39,11.40
2016,06,27,05,40,11.40
2016,06,27,05,41,11.40
2016,06,27,05,42,11.40
2016,06,27,05,43,11.30
2016,06,27,05,44,11.30
2016,06,27,05,45,11.40
2016,06,27,05,46,11.40
2016,06,27,05,47,11.40
2016,06,27,05,48,11.40
2016,06,27,05,49,11.40
2016,06,27,05,50,11.40
2016,06,27,05,51,11.40
2016,06,27,05,52,11.40
2016,06,27,05,53,11.40
2016,06,27,05,54,11.40
2016,06,27,05,55,11.40
2016,06,27,05,56,11.40
2016,06,27,05,57,11.40
2016,06,27,05,58,11.40
2016,06,27,05,59,11.40
2016,06,27,06,00,11.40
2016,06,27,06,01,11.40
2016,06,27,06,02,11.40
2016,06,27,06,03,11.50
2016,06,27,06,04,11.50
2016,06,27,06,05,11.50
2016,06,27,06,06,11.50
2016,06,27,06,07,11.50
2016,06,27,06,08,11.50
2016,06,27,06,09,11.50
2016,06,27,06,10,11.60
2016,06,27,06,11,11.60
2016,06,27,06,12,11.60
2016,06,27,06,13,11.60
2016,06,27,06,14,11.60
2016,06,27,06,15,11.60
2016,06,27,06,16,11.70
2016,06,27,06,17,11.70
2016,06,27,06,18,11.70
2016,06,27,06,19,11.70
2016,06,27,06,20,11.70
2016,06,27,06,21,11.70
2016,06,27,06,22,11.70
2016,06,27,06,23,11.80
2016,06,27,06,24,11.80
2016,06,27,06,25,11.80
2016,06,27,06,26,11.80
2016,06,27,06,27,11.80
2016,06,27,06,28,11.80
2016,06,27,06,29,11.80
2016,06,27,06,30,11.90
2016,06,27,06,31,11.90
2016,06,27,06,32,11.90
2016,06,27,06,33,12.00
2016,06,27,06,34,12.00
2016,06,27,06,35,12.00
2016,06,27,06,36,12.10
2016,06,27,06,37,12.10
2016,06,27,06,38,12.10
2016,06,27,06,39,12.10
2016,06,27,06,40,12.20
2016,06,27,06,41,12.20
2016,06,27,06,42,12.30
2016,06,27,06,43,12.30
2016,06,27,06,44,12.30
2016,06,27,06,45,12.40
2016,06,27,06,46,12.40
2016,06,27,06,47,12.40
2016,06,27,06,48,12.50
2016,06,27,06,49,12.50
2016,06,27,06,50,12.60
2016,06,27,06,51,12.60
2016,06,27,06,52,12.70
2016,06,27,06,53,12.70
2016,06,27,06,54,12.70
2016,06,27,06,55,12.80
2016,06,27,06,56,12.80
2016,06,27,06,57,12.90
2016,06,27,06,58,12.90
2016,06,27,06,59,13.00
2016,06,27,07,00,13.00
2016,06,27,07,01,13.10
2016,06,27,07,02,13.10
2016,06,27,07,03,13.20
2016,06,27,07,04,13.20
2016,06,27,07,05,13.20
2016,06,27,07,06,13.30
2016,06,27,07,07,13.30
2016,06,27,07,08,13.30
2016,06,27,07,09,13.40
2016,06,27,07,10,13.40
2016,06,27,07,11,13.50
2016,06,27,07,12,13.50
2016,06,27,07,13,13.60
2016,06,27,07,14,13.60
2016,06,27,07,15,13.70
2016,06,27,07,16,13.70
2016,06,27,07,17,13.70
2016,06,27,07,18,13.80
2016,06,27,07,19,13.80
2016,06,27,07,20,13.80
2016,06,27,07,21,13.90
2016,06,27,07,22,14.00
2016,06,27,07,23,14.00
2016,06,27,07,24,14.10
2016,06,27,07,25,14.20
2016,06,27,07,26,14.20
2016,06,27,07,27,14.30
2016,06,27,07,28,14.30
2016,06,27,07,29,14.40
2016,06,27,07,30,14.50
2016,06,27,07,31,14.60
2016,06,27,07,32,14.70
2016,06,27,07,33,14.80
2016,06,27,07,34,14.90
2016,06,27,07,35,15.00
2016,06,27,07,36,15.10
2016,06,27,07,37,15.20
2016,06,27,07,38,15.20
2016,06,27,07,39,15.30
2016,06,27,07,40,15.40
2016,06,27,07,41,15.50
2016,06,27,07,42,15.60
2016,06,27,07,43,15.70
2016,06,27,07,44,15.80
2016,06,27,07,45,15.90
2016,06,27,07,46,16.00
2016,06,27,07,47,16.10
2016,06,27,07,48,16.20
2016,06,27,07,49,16.30
2016,06,27,07,50,16.30
2016,06,27,07,51,16.40
2016,06,27,07,52,16.50
2016,06,27,07,53,16.60
2016,06,27,07,54,16.70
2016,06,27,07,55,16.80
2016,06,27,07,56,16.90
2016,06,27,07,57,17.00
2016,06,27,07,58,17.00
2016,06,27,07,59,17.10
2016,06,27,08,00,17.20
2016,06,27,08,01,17.30
2016,06,27,08,02,17.40
2016,06,27,08,03,17.50
2016,06,27,08,04,17.60
2016,06,27,08,05,17.70
2016,06,27,08,06,17.80
2016,06,27,08,07,17.80
2016,06,27,08,08,17.90
2016,06,27,08,09,17.90
2016,06,27,08,10,18.00
2016,06,27,08,11,18.00
2016,06,27,08,12,18.10
2016,06,27,08,13,18.10
2016,06,27,08,14,18.10
2016,06,27,08,15,18.10
2016,06,27,08,16,18.10
2016,06,27,08,17,18.10
2016,06,27,08,18,18.10
2016,06,27,08,19,18.10
2016,06,27,08,20,18.10
2016,06,27,08,21,18.10
2016,06,27,08,22,18.10
2016,06,27,08,23,18.00
2016,06,27,08,24,18.10
2016,06,27,08,25,18.10
2016,06,27,08,26,18.10
2016,06,27,08,27,18.10
2016,06,27,08,28,18.10
2016,06,27,08,29,18.10
2016,06,27,08,30,18.20
2016,06,27,08,31,18.20
2016,06,27,08,32,18.20
2016,06,27,08,33,18.30
2016,06,27,08,34,18.40
2016,06,27,08,35,18.40
2016,06,27,08,36,18.40
2016,06,27,08,37,18.50
2016,06,27,08,38,18.60
2016,06,27,08,39,18.70
2016,06,27,08,40,18.70
2016,06,27,08,41,18.80
2016,06,27,08,42,18.90
2016,06,27,08,43,19.00
2016,06,27,08,44,19.10
2016,06,27,08,45,19.20
2016,06,27,08,46,19.20
2016,06,27,08,47,19.30
2016,06,27,08,48,19.40
2016,06,27,08,49,19.60
2016,06,27,08,50,19.70
2016,06,27,08,51,19.80
2016,06,27,08,52,19.90
2016,06,27,08,53,20.00
2016,06,27,08,54,20.10
2016,06,27,08,55,20.10
2016,06,27,08,56,20.20
2016,06,27,08,57,20.30
2016,06,27,08,58,20.30
2016,06,27,08,59,20.40
2016,06,27,09,00,20.50
2016,06,27,09,01,20.50
2016,06,27,09,02,20.60
2016,06,27,09,03,20.70
2016,06,27,09,04,20.70
2016,06,27,09,05,20.80
2016,06,27,09,06,20.80
2016,06,27,09,07,20.80
2016,06,27,09,08,20.80
2016,06,27,09,09,20.80
2016,06,27,09,10,20.80
2016,06,27,09,11,20.80
2016,06,27,09,12,20.70
2016,06,27,09,13,20.70
2016,06,27,09,14,20.70
2016,06,27,09,15,20.60
2016,06,27,09,16,20.60
2016,06,27,09,17,20.60
2016,06,27,09,18,20.60
2016,06,27,09,19,20.60
2016,06,27,09,20,20.60
2016,06,27,09,21,20.60
2016,06,27,09,22,20.70
2016,06,27,09,23,20.70
2016,06,27,09,24,20.80
2016,06,27,09,25,20.80
2016,06,27,09,26,20.90
2016,06,27,09,27,20.90
2016,06,27,09,28,20.90
2016,06,27,09,29,21.00
2016,06,27,09,30,21.00
2016,06,27,09,31,21.10
2016,06,27,09,32,21.10
2016,06,27,09,33,21.10
2016,06,27,09,34,21.10
2016,06,27,09,35,21.20
2016,06,27,09,36,21.30
2016,06,27,09,37,21.30
2016,06,27,09,38,21.30
2016,06,27,09,39,21.40
2016,06,27,09,40,21.50
2016,06,27,09,41,21.60
2016,06,27,09,42,21.60
2016,06,27,09,43,21.70
2016,06,27,09,44,21.80
2016,06,27,09,45,21.80
2016,06,27,09,46,21.90
2016,06,27,09,47,22.00
2016,06,27,09,48,22.10
2016,06,27,09,49,22.20
2016,06,27,09,50,22.30
2016,06,27,09,51,22.40
2016,06,27,09,52,22.50
2016,06,27,09,53,22.60
2016,06,27,09,54,22.60
2016,06,27,09,55,22.70
2016,06,27,09,56,22.70
2016,06,27,09,57,22.80
2016,06,27,09,58,22.80
2016,06,27,09,59,22.80
2016,06,27,10,00,22.80
2016,06,27,10,01,22.90
2016,06,27,10,02,22.90
2016,06,27,10,03,22.90
2016,06,27,10,04,23.00
2016,06,27,10,05,23.00
2016,06,27,10,06,23.10
2016,06,27,10,07,23.10
2016,06,27,10,08,23.10
2016,06,27,10,09,23.20
2016,06,27,10,10,23.20
2016,06,27,10,11,23.20
2016,06,27,10,12,23.20
2016,06,27,10,13,23.20
2016,06,27,10,14,23.20
2016,06,27,10,15,23.20
2016,06,27,10,16,23.20
2016,06,27,10,17,23.30
2016,06,27,10,18,23.30
2016,06,27,10,19,23.40
2016,06,27,10,20,23.50
2016,06,27,10,21,23.60
2016,06,27,10,22,23.60
2016,06,27,10,23,23.60
2016,06,27,10,24,23.60
2016,06,27,10,25,23.50
2016,06,27,10,26,23.40
2016,06,27,10,27,23.30
2016,06,27,10,28,23.30
2016,06,27,10,29,23.20
2016,06,27,10,30,23.10
2016,06,27,10,31,23.00
2016,06,27,10,32,22.90
2016,06,27,10,33,22.80
2016,06,27,10,34,22.80
2016,06,27,10,35,22.70
2016,06,27,10,36,22.70
2016,06,27,10,37,22.70
2016,06,27,10,38,22.70
2016,06,27,10,39,22.70
2016,06,27,10,40,22.70
2016,06,27,10,41,22.70
2016,06,27,10,42,22.70
2016,06,27,10,43,22.70
2016,06,27,10,44,22.80
2016,06,27,10,45,22.90
2016,06,27,10,46,23.00
2016,06,27,10,47,23.10
2016,06,27,10,48,23.20
2016,06,27,10,49,23.30
2016,06,27,10,50,23.40
2016,06,27,10,51,23.40
2016,06,27,10,52,23.50
2016,06,27,10,53,23.50
2016,06,27,10,54,23.60
2016,06,27,10,55,23.70
2016,06,27,10,56,23.70
2016,06,27,10,57,23.80
2016,06,27,10,58,23.90
2016,06,27,10,59,23.90
2016,06,27,11,00,23.90
2016,06,27,11,01,23.80
2016,06,27,11,02,23.80
2016,06,27,11,03,23.80
2016,06,27,11,04,23.90
2016,06,27,11,05,23.90
2016,06,27,11,06,24.00
2016,06,27,11,07,23.90
2016,06,27,11,08,23.90
2016,06,27,11,09,23.90
2016,06,27,11,10,24.00
2016,06,27,11,11,24.00
2016,06,27,11,12,24.10
2016,06,27,11,13,24.20
2016,06,27,11,14,24.20
2016,06,27,11,15,24.20
2016,06,27,11,16,24.10
2016,06,27,11,17,24.10
2016,06,27,11,18,24.00
2016,06,27,11,19,23.90
2016,06,27,11,20,23.90
2016,06,27,11,21,23.90
2016,06,27,11,22,24.00
2016,06,27,11,23,24.00
2016,06,27,11,24,24.10
2016,06,27,11,25,24.10
2016,06,27,11,26,24.10
2016,06,27,11,27,24.10
2016,06,27,11,28,24.10
2016,06,27,11,29,24.20
2016,06,27,11,30,24.20
2016,06,27,11,31,24.20
2016,06,27,11,32,24.20
2016,06,27,11,33,24.20
2016,06,27,11,34,24.20
2016,06,27,11,35,24.20
2016,06,27,11,36,24.30
2016,06,27,11,37,24.30
2016,06,27,11,38,24.40
2016,06,27,11,39,24.50
2016,06,27,11,40,24.60
2016,06,27,11,41,24.60
2016,06,27,11,42,24.70
2016,06,27,11,43,24.80
2016,06,27,11,44,24.80
2016,06,27,11,45,24.90
2016,06,27,11,46,25.00
2016,06,27,11,47,25.10
2016,06,27,11,48,25.10
2016,06,27,11,49,25.10
2016,06,27,11,50,25.10
2016,06,27,11,51,25.10
2016,06,27,11,52,25.10
2016,06,27,11,53,25.10
2016,06,27,11,54,25.10
2016,06,27,11,55,25.20
2016,06,27,11,56,25.20
2016,06,27,11,57,25.20
2016,06,27,11,58,25.20
2016,06,27,11,59,25.20
2016,06,27,12,00,25.20
2016,06,27,12,01,25.20
2016,06,27,12,02,25.20
2016,06,27,12,03,25.20
2016,06,27,12,04,25.10
2016,06,27,12,05,25.10
2016,06,27,12,06,25.20
2016,06,27,12,07,25.20
2016,06,27,12,08,25.20
2016,06,27,12,09,25.20
2016,06,27,12,10,25.20
2016,06,27,12,11,25.30
2016,06,27,12,12,25.30
2016,06,27,12,13,25.20
2016,06,27,12,14,25.20
2016,06,27,12,15,25.10
2016,06,27,12,16,25.10
2016,06,27,12,17,25.10
2016,06,27,12,18,25.10
2016,06,27,12,19,25.10
2016,06,27,12,20,25.10
2016,06,27,12,21,25.10
2016,06,27,12,22,25.20
2016,06,27,12,23,25.20
2016,06,27,12,24,25.30
2016,06,27,12,25,25.30
2016,06,27,12,26,25.40
2016,06,27,12,27,25.50
2016,06,27,12,28,25.60
2016,06,27,12,29,25.60
2016,06,27,12,30,25.70
2016,06,27,12,31,25.80
2016,06,27,12,32,25.70
2016,06,27,12,33,25.70
2016,06,27,12,34,25.70
2016,06,27,12,35,25.70
2016,06,27,12,36,25.70
2016,06,27,12,37,25.70
2016,06,27,12,38,25.60
2016,06,27,12,39,25.60
2016,06,27,12,40,25.60
2016,06,27,12,41,25.60
2016,06,27,12,42,25.50
2016,06,27,12,43,25.50
2016,06,27,12,44,25.60
2016,06,27,12,45,25.50
2016,06,27,12,46,25.50
2016,06,27,12,47,25.50
2016,06,27,12,48,25.50
2016,06,27,12,49,25.50
2016,06,27,12,50,25.40
2016,06,27,12,51,25.40
2016,06,27,12,52,25.40
2016,06,27,12,53,25.40
2016,06,27,12,54,25.40
2016,06,27,12,55,25.40
2016,06,27,12,56,25.50
2016,06,27,12,57,25.60
2016,06,27,12,58,25.70
2016,06,27,12,59,25.70
2016,06,27,13,00,25.80
2016,06,27,13,01,25.80
2016,06,27,13,02,25.90
2016,06,27,13,03,25.90
2016,06,27,13,04,25.90
2016,06,27,13,05,25.90
2016,06,27,13,06,25.90
2016,06,27,13,07,25.90
2016,06,27,13,08,25.90
2016,06,27,13,09,26.00
2016,06,27,13,10,26.00
2016,06,27,13,11,26.10
2016,06,27,13,12,26.10
2016,06,27,13,13,26.20
2016,06,27,13,14,26.30
2016,06,27,13,15,26.30
2016,06,27,13,16,26.30
2016,06,27,13,17,26.30
2016,06,27,13,18,26.40
2016,06,27,13,19,26.40
2016,06,27,13,20,26.40
2016,06,27,13,21,26.40
2016,06,27,13,22,26.30
2016,06,27,13,23,26.40
2016,06,27,13,24,26.40
2016,06,27,13,25,26.20
2016,06,27,13,26,25.90
2016,06,27,13,27,25.80
2016,06,27,13,28,25.80
2016,06,27,13,29,25.80
2016,06,27,13,30,25.90
2016,06,27,13,31,26.00
2016,06,27,13,32,26.10
2016,06,27,13,33,26.10
2016,06,27,13,34,26.20
2016,06,27,13,35,26.20
2016,06,27,13,36,26.20
2016,06,27,13,37,26.10
2016,06,27,13,38,26.10
2016,06,27,13,39,26.10
2016,06,27,13,40,26.20
2016,06,27,13,41,26.30
2016,06,27,13,42,26.40
2016,06,27,13,43,26.50
2016,06,27,13,44,26.60
2016,06,27,13,45,26.60
2016,06,27,13,46,26.50
2016,06,27,13,47,26.40
2016,06,27,13,48,26.30
2016,06,27,13,49,26.30
2016,06,27,13,50,26.30
2016,06,27,13,51,26.30
2016,06,27,13,52,26.20
2016,06,27,13,53,26.30
2016,06,27,13,54,26.30
2016,06,27,13,55,26.40
2016,06,27,13,56,26.40
2016,06,27,13,57,26.50
2016,06,27,13,58,26.60
2016,06,27,13,59,26.60
2016,06,27,14,00,26.60
2016,06,27,14,01,26.60
2016,06,27,14,02,26.60
2016,06,27,14,03,26.60
2016,06,27,14,04,26.60
2016,06,27,14,05,26.60
2016,06,27,14,06,26.60
2016,06,27,14,07,26.60
2016,06,27,14,08,26.60
2016,06,27,14,09,26.70
2016,06,27,14,10,26.80
2016,06,27,14,11,26.80
2016,06,27,14,12,26.80
2016,06,27,14,13,26.80
2016,06,27,14,14,26.70
2016,06,27,14,15,26.70
2016,06,27,14,16,26.80
2016,06,27,14,17,26.80
2016,06,27,14,18,26.90
2016,06,27,14,19,26.90
2016,06,27,14,20,26.90
2016,06,27,14,21,26.90
2016,06,27,14,22,26.90
2016,06,27,14,23,26.90
2016,06,27,14,24,26.80
2016,06,27,14,25,26.70
2016,06,27,14,26,26.60
2016,06,27,14,27,26.50
2016,06,27,14,28,26.50
2016,06,27,14,29,26.60
2016,06,27,14,30,26.60
2016,06,27,14,31,26.60
2016,06,27,14,32,26.60
2016,06,27,14,33,26.70
2016,06,27,14,34,26.80
2016,06,27,14,35,26.80
2016,06,27,14,36,26.90
2016,06,27,14,37,26.90
2016,06,27,14,38,27.00
2016,06,27,14,39,27.00
2016,06,27,14,40,27.00
2016,06,27,14,41,27.10
2016,06,27,14,42,27.00
2016,06,27,14,43,27.00
2016,06,27,14,44,26.80
2016,06,27,14,45,26.60
2016,06,27,14,46,26.50
2016,06,27,14,47,26.30
2016,06,27,14,48,26.30
2016,06,27,14,49,26.30
2016,06,27,14,50,26.40
2016,06,27,14,51,26.50
2016,06,27,14,52,26.60
2016,06,27,14,53,26.60
2016,06,27,14,54,26.70
2016,06,27,14,55,26.70
2016,06,27,14,56,26.80
2016,06,27,14,57,26.80
2016,06,27,14,58,26.90
2016,06,27,14,59,26.90
2016,06,27,15,00,26.80
2016,06,27,15,01,26.80
2016,06,27,15,02,26.70
2016,06,27,15,03,26.50
2016,06,27,15,04,26.40
2016,06,27,15,05,26.30
2016,06,27,15,06,26.20
2016,06,27,15,07,26.30
2016,06,27,15,08,26.30
2016,06,27,15,09,26.30
2016,06,27,15,10,26.30
2016,06,27,15,11,26.30
2016,06,27,15,12,26.40
2016,06,27,15,13,26.50
2016,06,27,15,14,26.50
2016,06,27,15,15,26.60
2016,06,27,15,16,26.70
2016,06,27,15,17,26.70
2016,06,27,15,18,26.80
2016,06,27,15,19,26.70
2016,06,27,15,20,26.60
2016,06,27,15,21,26.60
2016,06,27,15,22,26.60
2016,06,27,15,23,26.70
2016,06,27,15,24,26.70
2016,06,27,15,25,26.80
2016,06,27,15,26,26.90
2016,06,27,15,27,27.00
2016,06,27,15,28,27.00
2016,06,27,15,29,27.10
2016,06,27,15,30,27.20
2016,06,27,15,31,27.20
2016,06,27,15,32,27.20
2016,06,27,15,33,27.20
2016,06,27,15,34,27.20
2016,06,27,15,35,27.20
2016,06,27,15,36,27.20
2016,06,27,15,37,27.20
2016,06,27,15,38,27.20
2016,06,27,15,39,27.30
2016,06,27,15,40,27.30
2016,06,27,15,41,27.30
2016,06,27,15,42,27.40
2016,06,27,15,43,27.50
2016,06,27,15,44,27.50
2016,06,27,15,45,27.60
2016,06,27,15,46,27.60
2016,06,27,15,47,27.60
2016,06,27,15,48,27.70
2016,06,27,15,49,27.70
2016,06,27,15,50,27.70
2016,06,27,15,51,27.70
2016,06,27,15,52,27.70
2016,06,27,15,53,27.70
2016,06,27,15,54,27.80
2016,06,27,15,55,27.80
2016,06,27,15,56,27.90
2016,06,27,15,57,27.90
2016,06,27,15,58,27.90
2016,06,27,15,59,27.90
2016,06,27,16,00,27.90
2016,06,27,16,01,27.90
2016,06,27,16,02,28.00
2016,06,27,16,03,28.00
2016,06,27,16,04,28.00
2016,06,27,16,05,28.00
2016,06,27,16,06,28.00
2016,06,27,16,07,28.00
2016,06,27,16,08,28.00
2016,06,27,16,09,28.10
2016,06,27,16,10,28.10
2016,06,27,16,11,28.10
2016,06,27,16,12,28.20
2016,06,27,16,13,28.20
2016,06,27,16,14,28.30
2016,06,27,16,15,28.30
2016,06,27,16,16,28.40
2016,06,27,16,17,28.40
2016,06,27,16,18,28.40
2016,06,27,16,19,28.40
2016,06,27,16,20,28.50
2016,06,27,16,21,28.50
2016,06,27,16,22,28.40
2016,06,27,16,23,28.30
2016,06,27,16,24,28.30
2016,06,27,16,25,28.20
2016,06,27,16,26,28.20
2016,06,27,16,27,28.20
2016,06,27,16,28,28.20
2016,06,27,16,29,28.20
2016,06,27,16,30,28.20
2016,06,27,16,31,28.10
2016,06,27,16,32,28.10
2016,06,27,16,33,28.10
2016,06,27,16,34,28.10
2016,06,27,16,35,28.10
2016,06,27,16,36,28.10
2016,06,27,16,37,28.10
2016,06,27,16,38,28.10
2016,06,27,16,39,28.10
2016,06,27,16,40,28.00
2016,06,27,16,41,28.00
2016,06,27,16,42,28.00
2016,06,27,16,43,28.10
2016,06,27,16,44,28.10
2016,06,27,16,45,28.00
2016,06,27,16,46,27.90
2016,06,27,16,47,27.90
2016,06,27,16,48,27.90
2016,06,27,16,49,28.00
2016,06,27,16,50,28.00
2016,06,27,16,51,28.10
2016,06,27,16,52,28.10
2016,06,27,16,53,28.20
2016,06,27,16,54,28.20
2016,06,27,16,55,28.20
2016,06,27,16,56,28.20
2016,06,27,16,57,28.20
2016,06,27,16,58,28.30
2016,06,27,16,59,28.30
2016,06,27,17,00,28.30
2016,06,27,17,01,28.40
2016,06,27,17,02,28.40
2016,06,27,17,03,28.50
2016,06,27,17,04,28.50
2016,06,27,17,05,28.60
2016,06,27,17,06,28.60
2016,06,27,17,07,28.60
2016,06,27,17,08,28.60
2016,06,27,17,09,28.60
2016,06,27,17,10,28.60
2016,06,27,17,11,28.60
2016,06,27,17,12,28.70
2016,06,27,17,13,28.70
2016,06,27,17,14,28.70
2016,06,27,17,15,28.70
2016,06,27,17,16,28.70
2016,06,27,17,17,28.70
2016,06,27,17,18,28.70
2016,06,27,17,19,28.80